Date,TemperatureHighF,TemperatureAvgF,TemperatureLowF,DewpointHighF,DewpointAvgF,DewpointLowF,HumidityHigh,HumidityAvg,HumidityLow,PressureMaxIn,PressureMinIn,WindSpeedMaxMPH,WindSpeedAvgMPH,GustSpeedMaxMPH,PrecipitationSumIn
2013-1-1,80.4,65.8,55.6,49.8,30.1,14.4,66,32,10,30.19,30.02,6,0,6,0.16
2013-1-2,80.6,69.4,62.8,56.5,43.0,22.0,68,43,12,30.05,29.99,6,1,6,0.00
2013-1-3,73.8,66.2,60.3,61.1,53.2,36.0,82,66,26,30.16,30.02,8,0,8,0.16
2013-1-4,62.1,59.7,57.4,56.1,48.4,36.9,85,68,43,30.25,30.14,6,0,6,0.16
2013-1-5,74.8,64.1,57.0,49.5,32.4,14.5,73,36,11,30.28,30.16,6,0,6,0.16
2013-1-6,80.4,68.0,61.7,61.4,47.3,28.1,80,52,17,30.19,30.05,6,0,6,0.00
2013-1-7,66.0,63.8,60.4,60.0,48.6,26.6,81,60,25,30.19,30.11,7,0,7,0.00
2013-1-8,84.6,71.1,62.2,61.6,40.4,16.6,86,42,8,30.19,30.08,0,0,0,0.00
2013-1-9,87.4,75.1,68.5,64.8,40.5,16.2,80,38,8,30.25,30.14,0,0,0,0.00
2013-1-10,85.6,74.1,68.2,64.8,39.4,15.4,82,38,8,30.28,30.19,0,0,0,0.00
2013-1-11,87.1,69.7,66.0,54.9,41.1,14.9,61,40,8,30.25,30.11,5,0,5,0.00
2013-1-12,87.1,73.4,66.2,54.0,38.0,16.6,62,34,8,30.16,30.08,5,0,5,0.00
2013-1-21,60.6,60.6,60.4,28.2,28.1,26.3,29,29,27,30.08,30.08,4,0,4,0.00
2013-1-22,66.9,59.5,51.3,28.2,12.2,2.5,29,16,10,30.28,30.08,10,1,10,0.30
2013-1-23,73.0,57.7,48.2,19.8,6.8,1.2,30,13,9,30.34,30.25,9,0,9,0.00
2013-1-24,74.5,58.5,47.3,32.3,20.7,6.7,50,28,8,30.31,30.22,10,1,10,0.58
2013-1-25,79.3,61.2,51.4,44.1,22.8,6.0,58,29,7,30.31,30.19,6,0,6,0.00
2013-1-26,76.6,67.4,51.4,43.4,22.8,8.7,57,23,8,30.28,30.16,8,1,8,0.00
2013-1-27,83.3,66.1,55.2,53.5,26.3,8.5,73,29,7,30.28,30.19,6,0,6,0.00
2013-1-28,85.1,70.7,63.0,50.3,32.6,15.1,62,30,8,30.31,30.19,4,0,6,0.00
2013-1-29,87.1,71.8,62.6,55.3,36.3,15.6,68,33,8,30.22,30.08,8,1,8,0.30
2013-1-30,82.6,71.6,66.6,45.7,37.4,16.6,46,33,9,30.08,29.96,10,2,10,0.00